Regional Weather Roundup
Issued by NWS Portland, ME

Home | Current Version | Previous Version | Text Only | Print | Product List | Glossary On
Versions: 1 2 3 4 5 6 7 8 9 10 11 12 13 14 15 16 17 18 19 20 21 22 23 24 25 26 27 28 29 30 31 32 33 34 35 36 37 38 39 40 41 42 43 44 45 46 47 48 49 50
000
ASUS41 KGYX 051210
RWRGYX
WEATHER ROUNDUP FOR MAINE AND NEW HAMPSHIRE
NATIONAL WEATHER SERVICE GRAY ME
700 AM EST THU MAR 05 2015

MEZ002-005-006-010-012-015-018-020-021-024-026-027-029-051300-
MAINE

CITY           SKY/WX    TMP DP  RH WIND       PRES   REMARKS
PORTLAND       CLOUDY    32   7  35 W13       29.95R
6HR MIN TEMP:  32; 6HR MAX TEMP:  39;

SANFORD        CLOUDY    30   1  29 W12G17    29.96R
BAR HARBOR     CLOUDY    30  14  51 NW13G18   29.90R
WISCASSET      CLOUDY    32   8  36 VRB7      29.94R
6HR MIN TEMP:  32; 6HR MAX TEMP:  37;

ROCKLAND       CLOUDY    30  12  47 NW7       29.91R
FRYEBURG       CLOUDY    25   2  37 NW13G22   29.95R WCI  14
6HR MIN TEMP:  25; 6HR MAX TEMP:  34;

LEWISTONAUBURN CLOUDY    27   7  43 NW14G20   29.93R WCI  15
AUGUSTA        CLOUDY    26   4  38 NW12G21   29.93R WCI  16
6HR MIN TEMP:  26; 6HR MAX TEMP:  35;

WATERVILLE     CLOUDY    27   5  39 N20       29.91R WCI  13
BANGOR         CLOUDY    22   7  52 N23G29    29.94R WCI   6
6HR MIN TEMP:  22; 6HR MAX TEMP:  34;

GREENVILLE       N/A     12   0  58 VRB6      29.81R
6HR MIN TEMP:  12; 6HR MAX TEMP:  26;

MILLINOCKET    CLOUDY    18   0  45 W8G23     29.91R
6HR MIN TEMP:  18; 6HR MAX TEMP:  31; 6HR PCP: TRACE;

HOULTON        CLOUDY    19   1  45 NW13G23   29.83R WCI   6
6HR MIN TEMP:  19; 6HR MAX TEMP:  30; 6HR PCP: TRACE;

PRESQUE ISLE   PTCLDY    10  -2  56 NW15      29.85R WCI  -6
6HR MIN TEMP:  10; 6HR MAX TEMP:  25;

FRENCHVILLE    CLEAR      4  -8  57 NW17G24   29.81R WCI -16
6HR MIN TEMP:   4; 6HR MAX TEMP:  16;

CARIBOU        CLOUDY     8  -3  61 NW15      29.84R WCI  -9
6HR MIN TEMP:   7; 6HR MAX TEMP:  23; 6HR PCP: TRACE;

$$

NHZ002-005-008-009-011-012-014-051300-
NEW HAMPSHIRE

CITY           SKY/WX    TMP DP  RH WIND       PRES   REMARKS
PORTSMOUTH     CLOUDY    33  13  44 NW14G22   29.94R
ROCHESTER      CLOUDY    30  11  45 NW7       29.95R
6HR MIN TEMP:  30; 6HR MAX TEMP:  36;

NASHUA         CLOUDY    31  10  41 W9        29.99R
MANCHESTER     CLOUDY    31  11  43 W12       29.96R
6HR MIN TEMP:  31; 6HR MAX TEMP:  37;

CONCORD        CLOUDY    28   6  39 NW12      29.98R WCI  18
6HR MIN TEMP:  28; 6HR MAX TEMP:  35;

LACONIA        CLOUDY    27  -6  24 W13G23    29.95R WCI  16
PLYMOUTH       FAIR      25   8  48 NW7       29.97R
BERLIN         LGT SNOW  14   6  70 NW9       29.95R
6HR MIN TEMP:  15; 6HR MAX TEMP:  29; 6HR PCP: TRACE;

WHITEFIELD     CLOUDY    19   3  49 W12       29.95R WCI   7
6HR MIN TEMP:  19; 6HR MAX TEMP:  30;

JAFFREY        CLOUDY    26   6  42 NW13G22   29.97R WCI  15
6HR MIN TEMP:  26; 6HR MAX TEMP:  33;

KEENE          CLOUDY    27   5  39 N12G22    30.00R WCI  16
LEBANON        CLOUDY    25   1  35 W10G17    29.99R WCI  15
6HR MIN TEMP:  25; 6HR MAX TEMP:  33;

MT WASHINGTON  BLWGSNOW  -8  -8 100 NW69        N/A  VSB 1/16WCI -46
6HR MIN TEMP:  -7; 6HR MAX TEMP:   4; 6HR PCP:  0.15;

$$

VTZ005-007-008-051300-
VERMONT

CITY           SKY/WX    TMP DP  RH WIND       PRES   REMARKS
ST JOHNSBURY     N/A     19   4  51 MISG      30.00R
MONTPELIER     CLOUDY    15   2  56 NW12G23   30.03R WCI   2
BURLINGTON     CLOUDY    17   5  59 NW20      30.11R WCI   1
$$

MAZ007-012-024-CTZ003-RIZ002-NYZ038-NYZ072-051300-
SOUTHERN NEW ENGLAND AND NY

CITY           SKY/WX    TMP DP  RH WIND       PRES   REMARKS
BOSTON         LGT SNOW  34  23  64 NW14      29.99R
WORCESTER      LGT SNOW  28  21  75 N7        29.95R
NANTUCKET      LGT SNOW  33  30  88 N18       29.98R FOG
PROVIDENCE     LGT SNOW  31  29  92 N5        29.99S VSB 3/4
HARTFORD       CLOUDY    32  13  45 N17       30.01R
ALBANY         CLOUDY    24   6  46 NW15G23   30.09R WCI  11
NEW YORK CITY  SNOW      34  28  80 NW8       30.03R VSB 1/2
$$

ANZ081-ANZ082-ANZ150-NHZ014-MEZ023>029-051300-
COASTAL MARINE OBSERVATIONS

STATION/POSITION TIME  TEMP    WIND        PRES    WAVE
                       AIR SEA DIR/SP/G            HT/PER
                 (UTC) (F)     (DEG/KT/KT) (MB)    (FT/S)
MOUNT DESERT ROC 1200   33                 1011.7R
MATINICUS ROCK   1100   34     310/ 18/ 19 1011.5R
WELLS            1100   33     330/ 11/ 15 1013.1R
ISLE OF SHOALS   1100   35     300/ 18/ 21 1013.1R
JEFFREYS LEDGE   1121      39                N/A     5/11
CASHES LEDGE BUO 1150   36 38              1012.1R   6/11
$$

.............KEY..............
   WCI - WIND CHILL
   TC  - TEMPERATURE IN CELSIUS
   VSB - VISIBILITY IN MILES
   HX  - HEAT INDEX
   FAIR- INDICATES FEW OR NO CLOUDS BELOW 12,000 FT, WITH NO
         SIGNIFICANT WEATHER AND/OR OBSTRUCTIONS TO VISIBILITY.





USA.gov is the U.S. government's official web portal to all federal, state and local government web resources and services.